| time (UTC) | temp F | wind direction | speed MPH | gust MPH | rain 1hr in | rain 24hr in | rain mn in | humidity % | barometer mb |
| 20260505010113 | 76 | 360 | 1.0 | 4.0 | 0.00 | 0.00 | 0.00 | 60 | 1000.6 |
| 20260505004631 | 77 | 360 | 1.0 | 3.0 | 0.00 | 0.00 | 0.00 | 59 | 1000.4 |
| 20260505003111 | 78 | 360 | 1.0 | 3.0 | 0.00 | 0.00 | 0.00 | 58 | 1000.3 |
| 20260505001539 | 79 | 360 | 1.0 | 3.0 | 0.00 | 0.00 | 0.00 | 57 | 1000.3 |
| 20260505000101 | 80 | 182 | 1.0 | 3.0 | 0.00 | 0.00 | 0.00 | 55 | 1000.3 |
| 20260504234609 | 80 | 360 | 1.0 | 5.0 | 0.00 | 0.00 | 0.00 | 53 | 1000.3 |
| 20260504233019 | 80 | 360 | 1.0 | 5.0 | 0.00 | 0.00 | 0.00 | 51 | 1000.4 |
| 20260504231526 | 82 | 360 | 1.0 | 3.0 | 0.00 | 0.00 | 0.00 | 53 | 1000.5 |
| 20260504224543 | 82 | 205 | 2.0 | 8.0 | 0.00 | 0.00 | 0.00 | 51 | 1000.4 |
| 20260504223017 | 81 | 360 | 2.0 | 9.0 | 0.00 | 0.00 | 0.00 | 51 | 1000.3 |
| 20260504221647 | 81 | 360 | 3.0 | 13.0 | 0.00 | 0.00 | 0.00 | 51 | 1000.4 |
| 20260504220004 | 82 | 360 | 2.0 | 8.0 | 0.00 | 0.00 | 0.00 | 50 | 1000.4 |
| 20260504214518 | 81 | 360 | 1.0 | 5.0 | 0.00 | 0.00 | 0.00 | 51 | 1000.6 |
| 20260504213101 | 82 | 360 | 4.0 | 13.0 | 0.00 | 0.00 | 0.00 | 46 | 1000.7 |
| 20260504211532 | 83 | 360 | 3.0 | 10.0 | 0.00 | 0.00 | 0.00 | 51 | 1000.7 |
| 20260504210048 | 83 | 360 | 5.0 | 10.0 | 0.00 | 0.00 | 0.00 | 48 | 1000.8 |
| 20260504204502 | 83 | 360 | 1.0 | 11.0 | 0.00 | 0.00 | 0.00 | 50 | 1000.9 |
| 20260504203007 | 83 | 360 | 6.0 | 14.0 | 0.00 | 0.00 | 0.00 | 47 | 1001.0 |
| 20260504201527 | 83 | 360 | 3.0 | 10.0 | 0.00 | 0.00 | 0.00 | 48 | 1001.2 |
| 20260504200044 | 83 | 360 | 4.0 | 10.0 | 0.00 | 0.00 | 0.00 | 48 | 1001.4 |
| 20260504194604 | 82 | 360 | 4.0 | 12.0 | 0.00 | 0.00 | 0.00 | 49 | 1001.5 |
| 20260504193025 | 82 | 360 | 5.0 | 13.0 | 0.00 | 0.00 | 0.00 | 45 | 1001.7 |
| 20260504191512 | 82 | 360 | 6.0 | 16.0 | 0.00 | 0.00 | 0.00 | 46 | 1001.8 |
| 20260504190046 | 82 | 360 | 3.0 | 11.0 | 0.00 | 0.00 | 0.00 | 49 | 1001.8 |
| 20260504184532 | 81 | 161 | 3.0 | 8.0 | 0.00 | 0.00 | 0.00 | 53 | 1001.9 |
| 20260504183007 | 80 | 360 | 4.0 | 10.0 | 0.00 | 0.00 | 0.00 | 52 | 1002.1 |
| 20260504181519 | 79 | 360 | 4.0 | 12.0 | 0.00 | 0.00 | 0.00 | 53 | 1002.2 |
| 20260504180103 | 77 | 360 | 3.0 | 11.0 | 0.00 | 0.00 | 0.00 | 53 | 1002.4 |
| 20260504174538 | 78 | 360 | 7.0 | 17.0 | 0.00 | 0.00 | 0.00 | 52 | 1002.5 |
| 20260504173103 | 77 | 360 | 4.0 | 10.0 | 0.00 | 0.00 | 0.00 | 51 | 1002.5 |
| 20260504171538 | 78 | 360 | 5.0 | 15.0 | 0.00 | 0.00 | 0.00 | 54 | 1002.6 |
| 20260504170107 | 77 | 360 | 3.0 | 16.0 | 0.00 | 0.00 | 0.00 | 54 | 1002.8 |
| 20260504140113 | 67 | 360 | 6.0 | 18.0 | 0.00 | 0.00 | 0.00 | 59 | 1003.1 |
| 20260504081523 | 67 | 360 | 4.0 | 15.0 | 0.00 | 0.00 | 0.00 | 52 | 1005.0 |
| 20260504044609 | 66 | 194 | 4.0 | 14.0 | 0.00 | 0.00 | 0.00 | 57 | 1006.4 |
| 20260504043104 | 66 | 360 | 3.0 | 9.0 | 0.00 | 0.00 | 0.00 | 61 | 1006.5 |
| 20260504041507 | 66 | 178 | 1.0 | 8.0 | 0.00 | 0.00 | 0.00 | 64 | 1006.7 |
| 20260504040021 | 66 | 360 | 2.0 | 4.0 | 0.00 | 0.00 | 0.00 | 64 | 1006.7 |
| 20260504034526 | 67 | 174 | 2.0 | 8.0 | 0.00 | 0.00 | 0.00 | 64 | 1006.9 |
| 20260504033057 | 67 | 360 | 3.0 | 6.0 | 0.00 | 0.00 | 0.00 | 65 | 1007.0 |
| 20260504031608 | 67 | 177 | 2.0 | 6.0 | 0.00 | 0.00 | 0.00 | 65 | 1007.2 |
| 20260504030038 | 68 | 360 | 2.0 | 5.0 | 0.00 | 0.00 | 0.00 | 65 | 1007.2 |
| 20260504024542 | 68 | 165 | 1.0 | 5.0 | 0.00 | 0.00 | 0.00 | 65 | 1007.2 |
| 20260504023015 | 68 | 360 | 3.0 | 9.0 | 0.00 | 0.00 | 0.00 | 65 | 1007.1 |
| 20260504021529 | 68 | 360 | 2.0 | 5.0 | 0.00 | 0.00 | 0.00 | 64 | 1007.0 |
| 20260504020106 | 69 | 360 | 1.0 | 3.0 | 0.00 | 0.00 | 0.00 | 63 | 1007.1 |
| 20260504014539 | 69 | 360 | 1.0 | 5.0 | 0.00 | 0.00 | 0.00 | 61 | 1007.1 |
| 20260504013034 | 71 | 171 | 0.0 | 3.0 | 0.00 | 0.00 | 0.00 | 58 | 1007.1 |
| 20260504011609 | 72 | 176 | 0.0 | 1.0 | 0.00 | 0.00 | 0.00 | 56 | 1007.1 |